Home > Weather > Gomel > Past weeks

Flag for Belarus Past Weather in Gomel, Belarus — Yesterday and Last 2 Weeks

Now
64 °F

Partly sunny.


Feels Like: 64 °F
Forecast: 57 / 76 °F
Wind: 3 mph from Northwest

Location: Gomel'

Current Time: May 26, 2016 at 10:01:16 AM

Latest Report: May 26, 2016 at 9:30 AM


Visibility: N/A

Pressure: 29.89 "Hg

Humidity: 56%

Dew Point: 48 °F

Location of GomelLocation

Past Weather in Gomel — Graph

°F

Gomel Temperature Yesterday

Maximum temperature yesterday: 70 °F (at 2:00 PM)
Minimum temperature yesterday: 50 °F (at 4:00 AM)
Average temperature yesterday: 61 °F

High & Low Weather Summary for the Past Weeks

 TemperatureHumidityPressure
High77 °F (May 11, 12:00 PM)100% (May 17, 11:00 AM)30.01 "Hg (May 17, 11:00 AM)
Low45 °F (May 15, 6:00 AM)32% (May 11, 1:00 PM)29.56 "Hg (May 14, 6:00 AM)
Average59 °F71%29.80 "Hg
* Reported May 11 9:00 AM — May 26 9:00 AM, Gomel, Weather by CustomWeather, © 2016

Note: Actual official high and low records may vary slightly from our data, if they occured in-between our weather recording intervals... More about our weather records

Advertising

Gomel Weather History for the Previous 24 Hours

Scroll right to see more
 ConditionsComfort  
Time TempWeatherWind HumidityBarometerVisibility
9:00 AM
Thu, May 26
64 °FSunny.3 mph56%29.89 "Hg10 mi
8:30 AM61 °FSunny.3 mph88%29.86 "Hg10 mi
8:00 AM61 °FSunny.6 mph88%29.86 "Hg10 mi
7:30 AM55 °FClear.6 mph94%29.86 "Hg6 mi
7:00 AM55 °FClear.3 mph94%29.83 "Hg4 mi
6:30 AM52 °FFog.1 mph100%29.83 "Hg1 mi
6:00 AM52 °FFog.1 mph100%29.83 "Hg1 mi
5:30 AM50 °FFog.1 mph100%29.83 "Hg0 mi
5:00 AM50 °FFog.1 mph100%29.83 "Hg1 mi
4:30 AM52 °FFog.1 mph94%29.83 "Hg3 mi
4:00 AM52 °FFog.1 mph94%29.83 "Hg3 mi
3:30 AM52 °FFog.3 mph100%29.83 "Hg2 mi
3:00 AM52 °FFog.1 mph100%29.83 "Hg0 mi
2:30 AM54 °FFog.1 mph94%29.80 "Hg0 mi
2:00 AM54 °FFog.1 mph94%29.80 "Hg1 mi
1:30 AM55 °FFog.3 mph100%29.80 "Hg1 mi
1:00 AM55 °FFog.6 mph100%29.80 "Hg1 mi
12:30 AM55 °FPassing clouds.1 mph100%29.80 "Hg4 mi
12:00 AM55 °FPassing clouds.1 mph100%29.80 "Hg5 mi
11:30 PM
Wed, May 25
57 °FPassing clouds.1 mph94%29.80 "Hg6 mi
11:00 PM57 °FPassing clouds.1 mph94%29.80 "Hg6 mi
10:30 PM59 °FPassing clouds.1 mph88%29.80 "Hg6 mi
10:00 PM59 °FPassing clouds.1 mph88%29.80 "Hg6 mi
9:30 PM61 °FPartly sunny.1 mph77%29.80 "HgN/A
9:00 PM61 °FPartly sunny.1 mph77%29.80 "HgN/A
8:30 PM63 °FPartly sunny.1 mph73%29.77 "HgN/A
8:00 PM63 °FBroken clouds.1 mph73%29.77 "HgN/A
7:30 PM64 °FBroken clouds.1 mph73%29.77 "HgN/A
7:00 PM64 °FBroken clouds.6 mph73%29.77 "HgN/A
6:30 PM64 °FPartly sunny.6 mph68%29.77 "HgN/A
6:00 PM64 °FPartly sunny.8 mph68%29.77 "HgN/A
5:30 PM68 °FPartly sunny.13 mph56%29.77 "HgN/A
5:00 PM68 °FPartly sunny.8 mph56%29.77 "HgN/A
4:30 PM70 °FBroken clouds.3 mph46%29.77 "HgN/A
4:00 PM70 °FBroken clouds.3 mph46%29.77 "HgN/A
3:30 PM70 °FBroken clouds.1 mph50%29.77 "HgN/A
3:00 PM70 °FBroken clouds.1 mph50%29.77 "HgN/A
2:30 PM70 °FBroken clouds.1 mph50%29.77 "HgN/A
2:00 PM70 °FBroken clouds.1 mph50%29.77 "HgN/A
1:30 PM68 °FBroken clouds.1 mph53%29.77 "HgN/A
1:00 PM68 °FBroken clouds.1 mph53%29.77 "HgN/A
12:30 PM64 °FBroken clouds.1 mph60%29.77 "HgN/A
12:00 PM64 °FBroken clouds.1 mph60%29.77 "HgN/A
11:30 AM63 °FBroken clouds.1 mph68%29.77 "HgN/A
11:00 AM63 °FBroken clouds.1 mph68%29.77 "HgN/A
10:30 AM61 °FBroken clouds.1 mph68%29.77 "HgN/A
10:00 AM61 °FBroken clouds.1 mph68%29.77 "HgN/A
Weather by CustomWeather, © 2016

See weather overviewHow to use our weather pages